Greenwood, SC

4:40 PM EDT on May 25, 2017 (GMT -0400)
Greenwood County

Weather History for KGRD - July, 2013

Change the Weather History Date:

Friday, July 26, 2013

  Actual Average (KAND) Record (KAND)
Temperature  
Mean Temperature 77 °F -  
Max Temperature 87 °F 90 °F 100 °F (2016)
Min Temperature 68 °F 70 °F 62 °F (1996)
Cooling Degree Days 12    
Growing Degree Days 27 (Base 50)    
Moisture  
Dew Point 69 °F    
Average Humidity 78    
Maximum Humidity 96    
Minimum Humidity 57    
Precipitation  
Precipitation 0.00 in - - ()
Sea Level Pressure  
Sea Level Pressure 30.04 in    
Wind  
Wind Speed 2 mph (ESE)    
Max Wind Speed 7 mph    
Max Gust Speed -    
Visibility 9 miles    
Events      
Averages and records for this station are not official NWS values.
T = Trace of Precipitation, MM = Missing Value Source: NWS Daily Summary

Daily Weather History Graph

Daily Weather History Graph

Search for Another Location

Airport or City:

Trip Planner

Search our weather history database for the weather conditions in past years. The results will help you decide how hot, cold, wet, or windy it might be!

Date:

Astronomy

Jul. 26, 2013 Rise Set
Actual Time 6:35 AM EDT 8:34 PM EDT
Civil Twilight 6:07 AM EDT 9:02 PM EDT
Nautical Twilight 5:33 AM EDT 9:36 PM EDT
Astronomical Twilight 4:57 AM EDT 10:12 PM EDT
Moon 11:04 PM EDT (7/26) 10:55 AM EDT (7/26)
Length of Visible Light 14h 54m
Length of Day
13h 59m
Waning Gibbous, 80% of the Moon is Illuminated
Jul 26
Waning Gibbous
Jul 29
Last Quarter
Aug 6
New
Aug 14
First Quarter
Aug 20
Full

Hourly Weather History & Observations

Time (EDT) Temp. Heat Index Dew Point Humidity Pressure Visibility Wind Dir Wind Speed Gust Speed Precip Events Conditions
12:56 AM 73.0 °F - 70.0 °F 90% 30.03 in 9.0 mi Calm Calm - N/A   Partly Cloudy
1:56 AM 71.1 °F - 66.9 °F 87% 30.02 in 10.0 mi NE 3.5 mph - N/A   Clear
2:56 AM 69.1 °F - 66.9 °F 93% 30.02 in 10.0 mi Calm Calm - N/A   Clear
3:56 AM 69.1 °F - 66.9 °F 93% 30.01 in 9.0 mi Calm Calm - N/A   Clear
4:56 AM 68.0 °F - 66.9 °F 96% 30.03 in 7.0 mi Calm Calm - N/A   Clear
5:56 AM 69.1 °F - 66.9 °F 93% 30.05 in 6.0 mi Calm Calm - N/A   Overcast
6:56 AM 69.1 °F - 68.0 °F 96% 30.06 in 4.0 mi NNE 3.5 mph - N/A   Overcast
7:56 AM 71.1 °F - 69.1 °F 93% 30.07 in 5.0 mi Calm Calm - N/A   Partly Cloudy
8:56 AM 75.0 °F - 70.0 °F 84% 30.09 in 8.0 mi ESE 4.6 mph - N/A   Scattered Clouds
9:56 AM 78.1 °F - 70.0 °F 76% 30.10 in 10.0 mi East 5.8 mph - N/A   Clear
10:56 AM 81.0 °F 84.4 °F 70.0 °F 69% 30.10 in 10.0 mi Variable 3.5 mph - N/A   Clear
11:56 AM 82.0 °F 85.9 °F 70.0 °F 67% 30.09 in 10.0 mi East 6.9 mph - N/A   Clear
12:56 PM 82.9 °F 87.0 °F 70.0 °F 65% 30.09 in 10.0 mi ESE 6.9 mph - N/A   Mostly Cloudy
1:56 PM 84.0 °F 87.8 °F 69.1 °F 61% 30.07 in 10.0 mi East 3.5 mph - N/A   Partly Cloudy
2:56 PM 86.0 °F 90.1 °F 69.1 °F 57% 30.05 in 10.0 mi East 5.8 mph - N/A   Partly Cloudy
3:56 PM 84.9 °F 88.2 °F 68.0 °F 57% 30.04 in 10.0 mi SE 5.8 mph - N/A   Partly Cloudy
4:56 PM 86.0 °F 90.1 °F 69.1 °F 57% 30.02 in 10.0 mi East 6.9 mph - N/A   Clear
5:56 PM 84.9 °F 90.1 °F 71.1 °F 63% 30.01 in 10.0 mi ESE 4.6 mph - N/A   Mostly Cloudy
6:56 PM 82.9 °F 87.0 °F 70.0 °F 65% 30.01 in 10.0 mi SE 3.5 mph - N/A   Scattered Clouds
7:56 PM 80.1 °F 83.6 °F 71.1 °F 74% 30.01 in 10.0 mi SE 5.8 mph - N/A   Overcast
8:56 PM 79.0 °F - 72.0 °F 79% 30.01 in 10.0 mi Calm Calm - N/A   Overcast
9:56 PM 77.0 °F - 72.0 °F 84% 30.03 in 10.0 mi Calm Calm - N/A   Mostly Cloudy
10:56 PM 75.9 °F - 72.0 °F 87% 30.03 in 10.0 mi WSW 4.6 mph - N/A   Overcast
11:56 PM 75.9 °F - 69.1 °F 79% 30.03 in 10.0 mi SSW 4.6 mph - N/A   Overcast